Elmira, NY

5:05 AM EDT on March 24, 2017 (GMT -0400)
Elmira-Corning Regional

Weather History for KELM - September, 2013

Change the Weather History Date:

Monday, September 16, 2013

  Actual Average Record
Temperature  
Mean Temperature 54 °F -  
Max Temperature 62 °F 72 °F 94 °F (1939)
Min Temperature 41 °F 48 °F 26 °F (1964)
Degree Days  
Heating Degree Days 11    
Growing Degree Days 4 (Base 50)    
Moisture  
Dew Point 48 °F    
Average Humidity 77    
Maximum Humidity 94    
Minimum Humidity 63    
Precipitation  
Precipitation 0.03 in - - ()
Sea Level Pressure  
Sea Level Pressure 30.19 in    
Wind  
Wind Speed 4 mph (North)    
Max Wind Speed 14 mph    
Max Gust Speed 22 mph    
Visibility 10 miles    
Events Rain    
Averages and records for this station are not official NWS values.
T = Trace of Precipitation, MM = Missing Value Source: NWS Daily Summary

Daily Weather History Graph

Daily Weather History Graph

Search for Another Location

Airport or City:

Trip Planner

Search our weather history database for the weather conditions in past years. The results will help you decide how hot, cold, wet, or windy it might be!

Date:

Astronomy

Sep. 16, 2013 Rise Set
Actual Time 6:48 AM EDT 7:14 PM EDT
Civil Twilight 6:20 AM EDT 7:43 PM EDT
Nautical Twilight 5:47 AM EDT 8:16 PM EDT
Astronomical Twilight 5:13 AM EDT 8:49 PM EDT
Moon 5:24 PM EDT (9/16) 3:29 AM EDT (9/16)
Length of Visible Light 13h 22m
Length of Day
12h 26m
Waxing Gibbous, 90% of the Moon is Illuminated
Sep 16
Waxing Gibbous
Sep 19
Full
Sep 26
Last Quarter
Oct 4
New
Oct 11
First Quarter

Hourly Weather History & Observations

Time (EDT) Temp. Dew Point Humidity Pressure Visibility Wind Dir Wind Speed Gust Speed Precip Events Conditions
12:53 AM 54.0 °F 51.1 °F 90% 30.07 in 10.0 mi Calm Calm - N/A   Overcast
1:53 AM 55.9 °F 51.1 °F 84% 30.09 in 10.0 mi Calm Calm - 0.00 in Rain Light Rain
2:53 AM 55.0 °F 48.9 °F 80% 30.10 in 10.0 mi NE 4.6 mph - 0.01 in Rain Light Rain
3:53 AM 54.0 °F 48.9 °F 83% 30.09 in 10.0 mi Calm Calm - 0.02 in   Overcast
4:53 AM 53.1 °F 50.0 °F 89% 30.09 in 10.0 mi Calm Calm - 0.00 in   Overcast
5:53 AM 53.1 °F 50.0 °F 89% 30.10 in 10.0 mi Calm Calm - N/A   Overcast
6:53 AM 53.1 °F 51.1 °F 93% 30.12 in 10.0 mi Calm Calm - N/A   Overcast
7:22 AM 53.6 °F 51.8 °F 94% 30.12 in 10.0 mi WSW 3.5 mph - N/A   Overcast
7:53 AM 54.0 °F 51.1 °F 90% 30.13 in 10.0 mi West 3.5 mph - N/A   Overcast
8:28 AM 55.4 °F 51.8 °F 88% 30.13 in 10.0 mi SW 5.8 mph - N/A   Overcast
8:53 AM 55.0 °F 51.1 °F 86% 30.14 in 10.0 mi SW 8.1 mph - N/A   Mostly Cloudy
9:53 AM 59.0 °F 48.9 °F 69% 30.14 in 10.0 mi NW 8.1 mph - N/A   Mostly Cloudy
10:01 AM 59.0 °F 48.2 °F 67% 30.14 in 10.0 mi NNW 8.1 mph - N/A   Mostly Cloudy
10:35 AM 60.8 °F 48.2 °F 63% 30.14 in 10.0 mi NW 8.1 mph - N/A   Mostly Cloudy
10:42 AM 62.6 °F 50.0 °F 63% 30.14 in 10.0 mi WNW 5.8 mph - N/A   Scattered Clouds
10:53 AM 61.0 °F 48.9 °F 64% 30.15 in 10.0 mi Variable 3.5 mph - N/A   Mostly Cloudy
11:04 AM 60.8 °F 48.2 °F 63% 30.15 in 10.0 mi North 5.8 mph - N/A   Mostly Cloudy
11:53 AM 61.0 °F 50.0 °F 67% 30.15 in 10.0 mi North 5.8 mph - N/A   Overcast
12:53 PM 61.0 °F 51.1 °F 70% 30.16 in 10.0 mi NNE 6.9 mph - N/A   Overcast
1:49 PM 59.0 °F 51.8 °F 77% 30.17 in 10.0 mi NNE 13.8 mph - N/A   Overcast
1:53 PM 59.0 °F 51.1 °F 75% 30.18 in 10.0 mi NNE 11.5 mph 21.9 mph N/A   Overcast
2:44 PM 57.2 °F 51.8 °F 82% 30.19 in 10.0 mi NNE 9.2 mph - N/A   Overcast
2:53 PM 57.0 °F 50.0 °F 77% 30.20 in 10.0 mi North 12.7 mph 19.6 mph N/A   Overcast
3:18 PM 57.2 °F 50.0 °F 77% 30.20 in 10.0 mi North 9.2 mph - N/A   Overcast
3:53 PM 55.0 °F 48.9 °F 80% 30.21 in 9.0 mi NNE 12.7 mph - N/A   Overcast
4:00 PM 55.4 °F 48.2 °F 77% 30.21 in 9.0 mi NE 9.2 mph 18.4 mph N/A   Overcast
4:31 PM 55.4 °F 48.2 °F 77% 30.21 in 10.0 mi NNE 11.5 mph - N/A   Overcast
4:53 PM 55.0 °F 48.0 °F 77% 30.23 in 10.0 mi NNE 6.9 mph - N/A   Overcast
5:53 PM 53.1 °F 46.0 °F 77% 30.26 in 10.0 mi North 12.7 mph - N/A   Overcast
6:53 PM 51.1 °F 44.1 °F 77% 30.28 in 10.0 mi NNE 10.4 mph - N/A   Overcast
7:35 PM 51.8 °F 42.8 °F 71% 30.29 in 10.0 mi NNW 4.6 mph - N/A   Overcast
7:53 PM 51.1 °F 41.0 °F 68% 30.30 in 10.0 mi North 6.9 mph - N/A   Overcast
8:53 PM 50.0 °F 37.9 °F 63% 30.33 in 10.0 mi North 3.5 mph - N/A   Overcast
9:53 PM 48.0 °F 37.9 °F 68% 30.34 in 10.0 mi Calm Calm - N/A   Mostly Cloudy
10:53 PM 46.9 °F 39.9 °F 77% 30.35 in 10.0 mi Calm Calm - N/A   Mostly Cloudy
11:53 PM 41.0 °F 37.0 °F 86% 30.38 in 10.0 mi Calm Calm - N/A   Clear